Location: Gipe Farm
(40.9466°N, 95.5370°W)
Time: 21:37:10
(UTC-05:00)

Cosmos 1842 - Visible Passes

Search period start: 25 July 2016 00:00
Search period end: 04 August 2016 00:00
Orbit: 527 x 541 km, 82.5° (Epoch: 25 July)

Date Brightness Start Highest point End Pass type
(mag) Time Alt. Az. Time Alt. Az. Time Alt. Az.
25 Jul 5.2 02:10:34 10° NNE 02:13:16 26° NE 02:13:16 26° NE visible
25 Jul 5.4 03:47:06 10° NW 03:48:38 16° WNW 03:48:38 16° WNW visible
26 Jul 5.3 02:01:16 10° NNE 02:03:44 24° NE 02:03:44 24° NE visible
26 Jul 5.4 03:37:42 10° NW 03:39:06 16° WNW 03:39:06 16° WNW visible
27 Jul 5.4 01:51:58 10° NNE 01:54:13 23° NE 01:54:13 23° NE visible
27 Jul 5.5 03:28:19 10° NW 03:29:35 16° NW 03:29:35 16° NW visible
28 Jul 5.5 01:42:41 10° NNE 01:44:43 21° NE 01:44:43 21° NE visible
28 Jul 5.6 03:18:55 10° NW 03:20:05 16° NW 03:20:05 16° NW visible
29 Jul 5.6 01:33:23 10° NNE 01:35:14 20° NE 01:35:14 20° NE visible
29 Jul 5.6 03:09:32 10° NW 03:10:36 15° NW 03:10:36 15° NW visible
30 Jul 5.7 01:24:05 10° NNE 01:25:46 19° NE 01:25:46 19° NE visible
30 Jul 5.7 03:00:09 10° NW 03:01:08 15° NW 03:01:08 15° NW visible
31 Jul 5.8 01:14:48 10° NNE 01:16:19 17° NE 01:16:19 17° NE visible
31 Jul 5.8 02:50:46 10° NW 02:51:41 15° NW 02:51:41 15° NW visible
01 Aug 5.9 01:05:30 10° NNE 01:06:52 17° NE 01:06:52 17° NE visible
01 Aug 5.8 02:41:23 10° NW 02:42:14 15° NW 02:42:14 15° NW visible
02 Aug 5.9 00:56:12 10° NNE 00:57:26 16° NE 00:57:26 16° NE visible
02 Aug 5.9 02:31:59 10° NNW 02:32:48 14° NW 02:32:48 14° NW visible
03 Aug 6.0 00:46:55 10° NNE 00:48:00 15° NE 00:48:00 15° NE visible
03 Aug 6.0 02:22:36 10° NNW 02:23:22 14° NW 02:23:22 14° NW visible
